LA8QT Lodingen NO current weather conditions

sailwx.info

Wind from 030 at 4 knots

Air temperature 11.7° C
Dewpoint 7.8° C

Last reported at 2014-Jul-29 03:46 UTC.
Time now 2014-Jul-29 04:36 UTC

Location: N 68°28' E 016°04'.
View on Google Maps.

See reports from other nearby stations

  
Tides and Currents Weather Stations Pressure Air Temp Water Temp Dewpoint Dewpoint Depression Visibility Wind Speed Wind Dir Waves Ship Positions
date/time (UTC)wind fromknots sea level pressurealtimeterstation pressurevisibilityair tempwater tempwave heightnotes
2014-Jul-29 03:46 030 4 11.7
2014-Jul-29 03:31 035 4 11.7
2014-Jul-29 03:16 036 2 11.7
2014-Jul-29 03:01 027 6 11.7
2014-Jul-29 02:46 029 5 11.7
2014-Jul-29 02:31 039 6 11.7
2014-Jul-29 02:16 041 6 11.7
2014-Jul-29 02:01 036 6 11.7
2014-Jul-29 01:46 043 6 11.7
2014-Jul-29 01:31 042 6 11.7
2014-Jul-29 01:16 033 4 12.2
2014-Jul-29 01:01 047 6 12.2
2014-Jul-29 00:46 042 5 12.2
2014-Jul-29 00:31 064 6 12.2
2014-Jul-29 00:16 037 5 12.2
2014-Jul-29 00:01 052 6 12.2
2014-Jul-28 23:46 060 6 12.2
2014-Jul-28 23:31 035 7 12.2
2014-Jul-28 23:16 039 6 12.2
2014-Jul-28 23:01 049 7 12.2
2014-Jul-28 22:46 041 6 12.2
2014-Jul-28 22:31 046 5 12.2
2014-Jul-28 22:16 026 6 12.2
2014-Jul-28 22:00 060 6 12.2
2014-Jul-28 21:45 053 7 12.2
2014-Jul-28 21:30 072 6 12.2
2014-Jul-28 21:15 054 6 12.8
2014-Jul-28 21:00 062 6 12.8
2014-Jul-28 20:45 052 7 12.8
2014-Jul-28 20:30 032 7 12.8
2014-Jul-28 20:15 036 8 12.8
2014-Jul-28 20:00 047 6 12.8
2014-Jul-28 19:45 055 6 12.8
2014-Jul-28 19:30 057 7 12.8
2014-Jul-28 19:15 047 8 12.8
2014-Jul-28 19:00 071 7 13.3
2014-Jul-28 18:45 045 6 13.3
2014-Jul-28 18:30 055 7 13.3
2014-Jul-28 18:15 070 9 13.3
2014-Jul-28 18:00 053 9 13.3
2014-Jul-28 17:45 074 10 13.3
2014-Jul-28 17:30 056 13 13.9
2014-Jul-28 17:15 049 8 13.9
2014-Jul-28 17:00 044 9 13.9
2014-Jul-28 16:45 053 9 14.4
2014-Jul-28 16:30 056 8 14.4
2014-Jul-28 16:15 049 9 14.4
2014-Jul-28 16:00 030 7 14.4
2014-Jul-28 15:45 050 8 14.4
2014-Jul-28 15:30 062 8 14.4
2014-Jul-28 15:15 033 9 14.4
2014-Jul-28 15:00 035 10 15.0
2014-Jul-28 14:45 053 10 15.0
2014-Jul-28 14:30 037 9 15.0
2014-Jul-28 14:15 049 9 15.6
2014-Jul-28 14:00 033 7 15.6
2014-Jul-28 13:45 029 7 15.6
2014-Jul-28 13:30 048 7 15.6
2014-Jul-28 13:15 043 5 16.1
2014-Jul-28 13:01 055 7 16.1
2014-Jul-28 12:45 067 6 16.7
2014-Jul-28 12:14 063 4 17.2
2014-Jul-28 11:59 070 3 16.7
2014-Jul-28 11:44 070 4 16.7
2014-Jul-28 11:29 070 4 16.1
2014-Jul-28 11:14 070 5 16.1
2014-Jul-28 10:59 070 5 16.1
2014-Jul-28 10:44 067 5 16.1
2014-Jul-28 10:29 055 3 16.1
2014-Jul-28 10:14 055 3 16.1
2014-Jul-28 09:59 055 4 16.1
2014-Jul-28 09:44 054 4 16.1
2014-Jul-28 09:30 051 4 16.1
2014-Jul-28 09:14 051 4 16.1
2014-Jul-28 08:59 048 3 16.1
2014-Jul-28 08:44 048 4 15.6
2014-Jul-28 08:29 044 4 15.6
2014-Jul-28 08:14 047 4 15.6
2014-Jul-28 07:59 049 4 15.6
2014-Jul-28 07:44 049 4 15.6
2014-Jul-28 07:29 052 3 15.6
2014-Jul-28 07:14 050 4 16.1
2014-Jul-28 06:59 048 5 16.1
2014-Jul-28 06:44 062 4 15.6
2014-Jul-28 06:29 063 5 15.6
2014-Jul-28 06:14 060 4 15.6
2014-Jul-28 05:59 062 4 15.6
2014-Jul-28 05:44 063 4 15.6
2014-Jul-28 05:29 063 4 15.6
2014-Jul-28 05:14 051 4 15.6
2014-Jul-28 04:59 055 4 15.6
2014-Jul-28 04:44 055 4 15.6
2014-Jul-28 04:29 060 4 15.6
2014-Jul-28 04:14 060 4 15.6
2014-Jul-28 03:59 058 5 15.0
2014-Jul-28 03:44 035 6 15.6
2014-Jul-28 03:29 037 6 15.0
2014-Jul-28 03:14 045 6 15.0
2014-Jul-28 02:59 055 6 15.0
2014-Jul-28 02:44 040 6 15.0
2014-Jul-28 02:29 053 6 15.0
2014-Jul-28 02:14 032 6 15.0
2014-Jul-28 01:59 032 6 15.0
2014-Jul-28 01:44 033 7 15.0
2014-Jul-28 01:29 035 8 15.0
2014-Jul-28 01:14 052 7 15.0
2014-Jul-28 00:59 039 7 15.0
2014-Jul-28 00:44 048 7 15.0
2014-Jul-28 00:29 041 8 15.0
2014-Jul-28 00:14 032 6 15.0
2014-Jul-27 23:59 044 6 15.0
2014-Jul-27 23:44 024 3 15.0
2014-Jul-27 23:29 047 4 15.0
2014-Jul-27 23:14 015 3 15.6
2014-Jul-27 22:59 045 4 15.6
2014-Jul-27 22:43 039 5 15.6
2014-Jul-27 22:28 024 4 15.6
2014-Jul-27 22:13 028 4 15.6
2014-Jul-27 21:58 053 6 15.6
2014-Jul-27 21:43 028 8 15.6
2014-Jul-27 21:28 035 7 16.1
2014-Jul-27 21:13 043 8 16.1
2014-Jul-27 20:58 037 7 16.7
2014-Jul-27 20:43 040 5 16.7
2014-Jul-27 20:28 035 6 16.7
2014-Jul-27 20:13 044 7 16.7
2014-Jul-27 19:58 032 10 17.2
2014-Jul-27 19:43 046 9 17.2
2014-Jul-27 19:28 024 10 17.8
2014-Jul-27 19:13 044 7 18.3
2014-Jul-27 18:58 040 7 18.3
2014-Jul-27 18:43 027 9 18.3
2014-Jul-27 18:28 036 7 18.9
2014-Jul-27 18:13 036 9 19.4
2014-Jul-27 17:58 023 9 19.4
2014-Jul-27 17:43 025 9 19.4
2014-Jul-27 17:28 033 7 20.0
2014-Jul-27 17:13 048 7 20.6
2014-Jul-27 16:58 035 9 20.6
2014-Jul-27 16:43 037 8 21.1
2014-Jul-27 16:28 044 7 21.1
2014-Jul-27 16:13 042 7 21.1
2014-Jul-27 15:58 039 7 20.6
2014-Jul-27 15:43 045 8 21.1
2014-Jul-27 15:28 057 7 21.1
2014-Jul-27 15:13 078 8 21.1
2014-Jul-27 14:58 074 6 21.7
2014-Jul-27 14:43 076 6 21.7
2014-Jul-27 14:28 074 6 21.7
2014-Jul-27 14:13 078 6 21.7
2014-Jul-27 13:58 074 6 21.7
2014-Jul-27 13:43 075 6 21.7
2014-Jul-27 13:28 075 6 21.7
2014-Jul-27 13:13 057 6 22.2
2014-Jul-27 12:58 060 5 22.2
2014-Jul-27 12:43 063 6 21.7
2014-Jul-27 12:28 053 6 21.7
2014-Jul-27 12:13 080 6 21.7
2014-Jul-27 11:58 066 5 21.7
2014-Jul-27 11:43 076 6 21.1
2014-Jul-27 11:28 074 6 21.1
2014-Jul-27 11:13 060 6 21.1
2014-Jul-27 10:58 074 6 21.1
2014-Jul-27 10:43 067 6 20.6
2014-Jul-27 10:28 066 4 20.6
2014-Jul-27 10:13 061 6 20.0
2014-Jul-27 09:58 072 7 19.4
2014-Jul-27 09:43 071 9 18.9
2014-Jul-27 09:28 087 6 20.0
2014-Jul-27 09:13 062 6 19.4
2014-Jul-27 08:58 062 6 19.4
2014-Jul-27 08:43 060 6 18.9
2014-Jul-27 08:28 066 8 18.3
2014-Jul-27 08:13 077 8 18.3
2014-Jul-27 07:58 079 8 18.3
2014-Jul-27 07:43 063 8 18.3
2014-Jul-27 07:28 064 7 18.3
2014-Jul-27 07:13 070 7 17.8
2014-Jul-27 06:57 068 6 17.2
2014-Jul-27 06:42 074 7 17.2
2014-Jul-27 06:27 066 6 17.2
2014-Jul-27 06:12 052 5 17.2
2014-Jul-27 05:57 054 2 16.7
2014-Jul-27 05:42 063 5 16.1
2014-Jul-27 05:27 066 6 16.1
2014-Jul-27 05:12 066 5 15.6
2014-Jul-27 04:57 070 5 16.1
2014-Jul-27 04:42 102 6 15.6
2014-Jul-27 04:27 103 6 14.4
2014-Jul-27 04:12 103 3 15.6